Regional Weather Roundup
Issued by NWS Sioux Falls, SD

Home | Current Version | Previous Version | Text Only | Print | Product List | Glossary Off
Versions: 1 2 3 4 5 6 7 8 9 10 11 12 13 14 15 16 17 18 19 20 21 22 23 24 25 26 27 28 29 30 31 32 33 34 35 36 37 38 39 40 41 42 43 44 45 46 47 48 49 50

000
ASUS43 KFSD 242010
RWRFSD

WEATHER ROUNDUP FOR SE SOUTH DAKOTA/SW MINNESOTA/NW IOWA
NATIONAL WEATHER SERVICE SIOUX FALLS SD
300 PM CDT SUN JUL 24 2016

NOTE: "FAIR" INDICATES FEW OR NO CLOUDS BELOW 12,000 FEET WITH NO
SIGNIFICANT WEATHER AND OR OBSTRUCTIONS TO VISIBILITY.


SDZ038>040-050-052>070-242100-
SOUTHEAST SOUTH DAKOTA

CITY           SKY/WX    TMP DP  RH WIND       PRES   REMARKS
BROOKINGS      CLOUDY    77  59  53 W10       30.05F
CHAMBERLAIN    CLOUDY    82  60  46 CALM      30.08F
HURON          CLOUDY    77  59  53 VRB6      30.05S
MADISON        FAIR      72  64  78 W10       30.08F
MITCHELL       CLOUDY    77  63  61 W3        30.07F
SIOUX FALLS    LGT RAIN  75  64  68 NW9       30.05F
WINNER         FAIR      82  52  35 MISG      30.11S
YANKTON        CLOUDY    75  61  60 NW8       30.04R
$$

MNZ071-072-080-081-089-090-097-098-242100-
SOUTHWEST MINNESOTA

CITY           SKY/WX    TMP DP  RH WIND       PRES   REMARKS
FAIRMONT       CLOUDY    79  45  29 W16       29.98R
JACKSON        CLOUDY    77  59  53 W10G16    30.06R
LUVERNE        CLOUDY    73  61  64 NW9       30.05F
MARSHALL       CLOUDY    78  62  57 W9        30.02R
MONTEVIDEO     MOSUNNY   81  63  54 NW13G18   30.02R
REDWOOD FALLS  CLOUDY    80  62  54 W20       30.01R
TRACY          CLOUDY    75  66  72 NW5       30.03R
WINDOM         MOSUNNY   77  63  61 W12       30.06R
WORTHINGTON    LGT RAIN  74  65  73 NW6       30.05R
$$

IAZ001>003-012>014-020>022-031-032-NEZ013-014-SDZ071-242100-
NORTHWEST IOWA

CITY           SKY/WX    TMP DP  RH WIND       PRES   REMARKS
CHEROKEE       CLOUDY    82  64  54 N16G23    30.03R
ESTHERVILLE    CLOUDY    77  64  64 W15G25    30.05R
LE MARS        PTSUNNY   82  61  47 NW8G14    30.03F
SHELDON        CLOUDY    79  64  61 NW8G15    30.02F
SIOUX CITY     CLOUDY    86  60  41 N13       30.01F
SPENCER        CLOUDY    81  64  56 NW14G21   30.05R
STORM LAKE     PTSUNNY   81  64  57 NW10      30.04R
$$

ABBREVIATIONS USED IN REMARKS
   TC - TEMPERATURE IN CELSIUS
  WCI - WIND CHILL INDEX
   HX - HEAT INDEX
  VSB - VISIBILITY




USA.gov is the U.S. government's official web portal to all federal, state and local government web resources and services.